Wheeling, WV

8:55 AM EST on January 18, 2018 (GMT -0500)
Wheeling-Ohio County

Weather History for KHLG - June, 2014

Change the Weather History Date:

Sunday, June 8, 2014

  Actual Average Record
Temperature  
Mean Temperature 69 °F 66 °F  
Max Temperature 78 °F 76 °F 100 °F (1933)
Min Temperature 59 °F 57 °F 34 °F (1932)
Degree Days  
Heating Degree Days 0 2  
Month to date heating degree days 8 21  
Since 1 June heating degree days 8 21  
Since 1 July heating degree days 5940 5570  
Cooling Degree Days 4    
Month to date cooling degree days 27  
Year to date cooling degree days 95  
Since 1 June cooling degree days 27  
Growing Degree Days 18 (Base 50)    
Moisture  
Dew Point 61 °F    
Average Humidity 80    
Maximum Humidity 97    
Minimum Humidity 63    
Precipitation  
Precipitation 0.21 in 0.17 in 1.40 in (1947)
Month to date precipitation 1.25 1.47  
Sea Level Pressure  
Sea Level Pressure 29.84 in    
Wind  
Wind Speed 8 mph (West)    
Max Wind Speed 21 mph    
Max Gust Speed 31 mph    
Visibility 8 miles    
Events Rain , Thunderstorm    
T = Trace of Precipitation, MM = Missing Value Source: NWS Daily Summary

Daily Weather History Graph

Daily Weather History Graph

Search for Another Location

Airport or City:

Trip Planner

Search our weather history database for the weather conditions in past years. The results will help you decide how hot, cold, wet, or windy it might be!

Date:

Astronomy

Jun. 08, 2014 Rise Set
Actual Time 5:53 AM EDT 8:50 PM EDT
Civil Twilight 5:20 AM EDT 9:23 PM EDT
Nautical Twilight 4:39 AM EDT 10:04 PM EDT
Astronomical Twilight 3:51 AM EDT 10:52 PM EDT
Moon 4:06 PM EDT (6/8) 2:45 AM EDT (6/8)
Length of Visible Light 16h 02m
Length of Day
14h 57m
Waxing Gibbous, 77% of the Moon is Illuminated
Jun 8
Waxing Gibbous
Jun 13
Full
Jun 19
Last Quarter
Jun 27
New
Jul 5
First Quarter

Hourly Weather History & Observations

Time (EDT) Temp. Dew Point Humidity Pressure Visibility Wind Dir Wind Speed Gust Speed Precip Events Conditions
12:53 AM 64.9 °F 51.1 °F 61% 29.91 in 10.0 mi East 6.9 mph - N/A   Clear
1:53 AM 63.0 °F 52.0 °F 67% 29.90 in 10.0 mi Calm Calm - N/A   Clear
2:53 AM 61.0 °F 52.0 °F 72% 29.87 in 10.0 mi East 5.8 mph - N/A   Clear
3:53 AM 63.0 °F 53.1 °F 70% 29.86 in 10.0 mi ESE 4.6 mph - N/A   Clear
4:53 AM 60.1 °F 54.0 °F 80% 29.84 in 10.0 mi SE 6.9 mph - N/A   Clear
5:53 AM 61.0 °F 55.9 °F 83% 29.83 in 10.0 mi SE 5.8 mph - N/A   Clear
6:53 AM 63.0 °F 57.0 °F 81% 29.83 in 10.0 mi SE 5.8 mph - N/A   Clear
7:53 AM 69.1 °F 60.1 °F 73% 29.82 in 10.0 mi SSE 9.2 mph - N/A   Clear
8:53 AM 72.0 °F 62.1 °F 71% 29.81 in 10.0 mi South 10.4 mph - N/A   Scattered Clouds
9:53 AM 73.0 °F 62.1 °F 68% 29.82 in 10.0 mi South 17.3 mph - N/A   Mostly Cloudy
10:53 AM 72.0 °F 63.0 °F 73% 29.82 in 10.0 mi South 13.8 mph 24.2 mph 0.00 in   Overcast
11:53 AM 73.0 °F 63.0 °F 71% 29.81 in 10.0 mi SSW 13.8 mph 21.9 mph N/A   Mostly Cloudy
12:53 PM 73.0 °F 64.0 °F 73% 29.81 in 10.0 mi SSW 11.5 mph - N/A   Overcast
1:53 PM 75.9 °F 66.0 °F 71% 29.79 in 10.0 mi SSW 9.2 mph - N/A   Mostly Cloudy
2:53 PM 73.0 °F 66.9 °F 81% 29.78 in 9.0 mi SW 4.6 mph - 0.03 in Rain Light Rain
4:34 PM 73.0 °F 64.0 °F 73% 29.80 in 8.0 mi WSW 19.6 mph 31.1 mph 0.01 in Rain , Thunderstorm Light Thunderstorms and Rain
4:48 PM 68.0 °F 64.4 °F 88% 29.81 in 2.5 mi WSW 8.1 mph 20.7 mph 0.06 in Rain , Thunderstorm Thunderstorms and Rain
4:53 PM 66.9 °F 64.0 °F 90% 29.81 in 3.0 mi West 4.6 mph - 0.06 in Rain , Thunderstorm Light Thunderstorms and Rain
5:08 PM 68.0 °F 64.9 °F 90% 29.81 in 10.0 mi WNW 8.1 mph - 0.00 in Thunderstorm Overcast
5:22 PM 68.0 °F 64.9 °F 90% 29.82 in 10.0 mi WNW 6.9 mph - 0.00 in   Overcast
5:53 PM 66.9 °F 64.9 °F 93% 29.82 in 5.0 mi WNW 8.1 mph - 0.03 in Rain Light Rain
6:03 PM 66.9 °F 64.9 °F 93% 29.83 in 4.0 mi West 10.4 mph 18.4 mph 0.02 in Rain Light Rain
6:18 PM 66.0 °F 64.0 °F 93% 29.82 in 3.0 mi WNW 10.4 mph - 0.05 in Rain Rain
6:33 PM 66.0 °F 64.0 °F 93% 29.82 in 5.0 mi NW 10.4 mph - 0.06 in Rain Light Rain
6:48 PM 66.2 °F 64.4 °F 94% 29.82 in 2.5 mi NW 5.8 mph - 0.08 in Rain Light Rain
6:53 PM 66.0 °F 64.9 °F 96% 29.82 in 4.0 mi WNW 9.2 mph - 0.08 in Rain Light Rain
7:00 PM 66.0 °F 64.9 °F 96% 29.83 in 3.0 mi NW 8.1 mph - 0.00 in Rain Light Rain
7:48 PM 64.4 °F 62.6 °F 94% 29.86 in 5.0 mi NNW 11.5 mph - 0.01 in   Overcast
7:53 PM 64.0 °F 62.1 °F 93% 29.85 in 5.0 mi NNW 10.4 mph - 0.01 in   Overcast
8:53 PM 61.0 °F 59.0 °F 93% 29.88 in 8.0 mi NNW 11.5 mph - 0.00 in   Overcast
9:01 PM 61.0 °F 57.9 °F 90% 29.89 in 8.0 mi NNW 8.1 mph - N/A   Overcast
9:53 PM 60.1 °F 57.9 °F 93% 29.91 in 8.0 mi NNW 4.6 mph - N/A   Overcast
10:53 PM 60.1 °F 57.9 °F 93% 29.91 in 7.0 mi NW 6.9 mph - N/A   Overcast
11:53 PM 59.0 °F 57.0 °F 93% 29.92 in 10.0 mi NNW 9.2 mph - N/A   Overcast